Location: Acequia del Cap
(41.7000°N, 0.6167°E)
Time: 00:27:28
(UTC+00:00)

Cosmos 2142 Rocket - Pass Details

Date: 07 August 2020
Orbit: 952 x 1005 km, 83.0° (Epoch: 22 September)

Event Time Altitude Azimuth Distance (km) Brightness Sun altitude
Exits shadow 02:00:57 62° 207° (SSW) 1,113 4.4 -25.9°
Maximum altitude 02:02:04 80° 277° (W) 1,018 4.4 -25.8°
Drops below altitude 10° 02:08:30 10° 5° (N) 2,787 7.7 -25.2°
Sets 02:11:03 0° 7° (N) 3,743 8.6 -24.9°
